Location: Kermapucano
(48.0667°N, 3.3000°W)
Time: 20:15:37
(UTC+00:00)

CZ-4 R/B - Pass Details

Date: 29 November 2020
Orbit: 532 x 598 km, 97.7° (Epoch: 27 January)

Event Time Altitude Azimuth Distance (km) Brightness Sun altitude
Rises 06:44:20 0° 26° (NNE) 2,841 5.0 -9.1°
Reaches altitude 10° 06:46:59 10° 44° (NE) 1,940 4.4 -8.7°
Maximum altitude 06:50:08 20° 92° (E) 1,395 4.4 -8.2°
Drops below altitude 10° 06:53:16 10° 140° (SE) 1,935 5.3 -7.7°
Sets 06:55:54 0° 158° (SSE) 2,831 5.7 -7.3°
